Time,TemperatureF,DewpointF,PressureIn,WindDirection,WindDirectionDegrees,WindSpeedMPH,WindSpeedGustMPH,Humidity,HourlyPrecipIn,Conditions,Clouds,dailyrainin,SoftwareType,DateUTC
2013-02-18 00:21:00,62.0,29.0,29.89,NNW,330,4.0,13.0,28,0.00,,,-99.99,,2013-02-18 08:21:00,
2013-02-18 00:32:00,62.0,29.0,29.89,NNW,330,4.0,13.0,28,0.00,,,-99.99,,2013-02-18 08:32:00,
2013-02-18 00:42:00,62.0,29.0,29.89,NNW,330,4.0,13.0,28,0.00,,,-99.99,,2013-02-18 08:42:00,
2013-02-18 01:22:00,61.0,27.0,29.89,NNW,330,8.0,12.0,27,0.00,,,-99.99,,2013-02-18 09:22:00,
2013-02-18 01:31:00,61.0,27.0,29.89,NNW,330,8.0,12.0,27,0.00,,,-99.99,,2013-02-18 09:31:00,
2013-02-18 01:41:00,61.0,27.0,29.89,NNW,330,8.0,12.0,27,0.00,,,-99.99,,2013-02-18 09:41:00,
2013-02-18 02:42:00,60.0,25.0,29.89,NW,320,6.0,8.0,26,0.00,,,-99.99,,2013-02-18 10:42:00,
2013-02-18 02:52:00,60.0,25.0,29.89,NW,320,6.0,8.0,26,0.00,,,-99.99,,2013-02-18 10:52:00,
2013-02-18 03:01:00,60.0,25.0,29.89,NW,320,6.0,8.0,26,0.00,,,-99.99,,2013-02-18 11:01:00,
2013-02-18 03:22:00,58.0,22.0,29.88,NW,320,4.0,6.0,25,0.00,,,-99.99,,2013-02-18 11:22:00,
2013-02-18 03:32:00,58.0,22.0,29.88,NW,320,4.0,6.0,25,0.00,,,-99.99,,2013-02-18 11:32:00,
2013-02-18 03:42:00,58.0,22.0,29.88,NW,320,4.0,6.0,25,0.00,,,-99.99,,2013-02-18 11:42:00,
2013-02-18 04:22:00,57.0,22.0,29.88,NW,320,1.0,4.0,25,0.00,,,-99.99,,2013-02-18 12:22:00,
2013-02-18 04:32:00,57.0,22.0,29.88,NW,320,1.0,4.0,25,0.00,,,-99.99,,2013-02-18 12:32:00,
2013-02-18 04:42:00,57.0,22.0,29.88,NW,320,1.0,4.0,25,0.00,,,-99.99,,2013-02-18 12:42:00,
2013-02-18 05:22:00,56.0,21.0,29.91,NW,320,2.0,5.0,25,0.00,,,-99.99,,2013-02-18 13:22:00,
2013-02-18 05:32:00,56.0,21.0,29.91,NW,320,2.0,5.0,25,0.00,,,-99.99,,2013-02-18 13:32:00,
2013-02-18 05:42:00,56.0,21.0,29.91,NW,320,2.0,5.0,25,0.00,,,-99.99,,2013-02-18 13:42:00,
2013-02-18 06:22:00,59.0,20.0,29.92,NW,320,2.0,5.0,22,0.00,,,-99.99,,2013-02-18 14:22:00,
2013-02-18 06:32:00,59.0,20.0,29.92,NW,320,2.0,5.0,22,0.00,,,-99.99,,2013-02-18 14:32:00,
2013-02-18 07:22:00,57.0,21.0,29.94,NW,320,2.0,3.0,24,0.00,,,-99.99,,2013-02-18 15:22:00,
2013-02-18 07:32:00,57.0,21.0,29.94,NW,320,2.0,3.0,24,0.00,,,-99.99,,2013-02-18 15:32:00,
2013-02-18 07:42:00,57.0,21.0,29.94,NW,320,2.0,3.0,24,0.00,,,-99.99,,2013-02-18 15:42:00,
2013-02-18 08:32:00,60.0,21.0,29.97,North,0,0.0,3.0,22,0.00,,,-99.99,,2013-02-18 16:32:00,
2013-02-18 09:22:00,63.0,29.0,29.97,NW,320,9.0,13.0,27,0.00,,,-99.99,,2013-02-18 17:22:00,
2013-02-18 09:32:00,63.0,29.0,29.97,NW,320,9.0,13.0,27,0.00,,,-99.99,,2013-02-18 17:32:00,
2013-02-18 09:42:00,63.0,29.0,29.97,NW,320,9.0,13.0,27,0.00,,,-99.99,,2013-02-18 17:42:00,
2013-02-18 10:22:00,65.0,30.0,29.97,WNW,300,3.0,12.0,27,0.00,,,-99.99,,2013-02-18 18:22:00,
2013-02-18 10:32:00,65.0,30.0,29.97,WNW,300,3.0,12.0,27,0.00,,,-99.99,,2013-02-18 18:32:00,
2013-02-18 10:42:00,65.0,30.0,29.97,WNW,300,3.0,12.0,27,0.00,,,-99.99,,2013-02-18 18:42:00,
2013-02-18 11:22:00,68.0,30.0,29.96,WNW,290,7.0,8.0,24,0.00,,,-99.99,,2013-02-18 19:22:00,
2013-02-18 11:33:00,68.0,30.0,29.96,WNW,290,7.0,8.0,24,0.00,,,-99.99,,2013-02-18 19:33:00,
2013-02-18 11:42:00,68.0,30.0,29.96,WNW,290,7.0,8.0,24,0.00,,,-99.99,,2013-02-18 19:42:00,
2013-02-18 12:22:00,70.0,28.0,29.94,WSW,250,12.0,12.0,21,0.00,,,-99.99,,2013-02-18 20:22:00,
2013-02-18 12:32:00,70.0,28.0,29.94,WSW,250,12.0,12.0,21,0.00,,,-99.99,,2013-02-18 20:32:00,
2013-02-18 12:42:00,70.0,28.0,29.94,WSW,250,12.0,12.0,21,0.00,,,-99.99,,2013-02-18 20:42:00,
2013-02-18 13:21:00,71.0,27.0,29.91,SE,140,19.0,24.0,19,0.00,,,-99.99,,2013-02-18 21:21:00,
2013-02-18 13:32:00,71.0,27.0,29.91,SE,140,19.0,24.0,19,0.00,,,-99.99,,2013-02-18 21:32:00,
2013-02-18 13:42:00,71.0,27.0,29.91,SE,140,19.0,24.0,19,0.00,,,-99.99,,2013-02-18 21:42:00,
2013-02-18 14:22:00,71.0,25.0,29.89,SSE,150,8.0,25.0,18,0.00,,,-99.99,,2013-02-18 22:22:00,
2013-02-18 14:33:00,71.0,25.0,29.89,SSE,150,8.0,25.0,18,0.00,,,-99.99,,2013-02-18 22:33:00,
2013-02-18 14:42:00,71.0,25.0,29.89,SSE,150,8.0,25.0,18,0.00,,,-99.99,,2013-02-18 22:42:00,
2013-02-18 15:22:00,71.0,27.0,29.87,SSE,150,18.0,18.0,19,0.00,,,-99.99,,2013-02-18 23:22:00,
2013-02-18 15:32:00,71.0,27.0,29.87,SSE,150,18.0,18.0,19,0.00,,,-99.99,,2013-02-18 23:32:00,
2013-02-18 15:42:00,71.0,27.0,29.87,SSE,150,18.0,18.0,19,0.00,,,-99.99,,2013-02-18 23:42:00,
2013-02-18 16:22:00,71.0,24.0,29.86,SSE,160,6.0,18.0,17,0.00,,,-99.99,,2013-02-19 00:22:00,
2013-02-18 16:33:00,71.0,24.0,29.86,SSE,160,6.0,18.0,17,0.00,,,-99.99,,2013-02-19 00:33:00,
2013-02-18 16:42:00,71.0,24.0,29.86,SSE,160,6.0,18.0,17,0.00,,,-99.99,,2013-02-19 00:42:00,
2013-02-18 17:23:00,69.0,24.0,29.85,SSE,150,8.0,14.0,18,0.00,,,-99.99,,2013-02-19 01:23:00,
2013-02-18 17:33:00,69.0,24.0,29.85,SSE,150,8.0,14.0,18,0.00,,,-99.99,,2013-02-19 01:33:00,
2013-02-18 23:21:00,58.0,38.0,29.85,NW,320,3.0,12.0,48,0.00,,,-99.99,,2013-02-19 07:21:00,
2013-02-18 23:32:00,58.0,38.0,29.85,NW,320,3.0,12.0,48,0.00,,,-99.99,,2013-02-19 07:32:00,
2013-02-18 23:42:00,58.0,38.0,29.85,NW,320,3.0,12.0,48,0.00,,,-99.99,,2013-02-19 07:42:00,